Tillbaka till svenska Fidonet
English   Information   Debug  
FILM   0/18
FNEWS_PUBLISH   4482
FN_SYSOP   41747
FN_SYSOP_OLD1   71952
FTP_FIDO   0/2
FTSC_PUBLIC   0/13637
FUNNY   0/4886
GENEALOGY.EUR   0/71
GET_INFO   105
GOLDED   0/408
HAM   3552/16100
HOLYSMOKE   0/6791
HOT_SITES   0/1
HTMLEDIT   0/71
HUB203   466
HUB_100   264
HUB_400   39
HUMOR   0/29
IC   0/2851
INTERNET   0/424
INTERUSER   0/3
IP_CONNECT   719
JAMNNTPD   0/233
JAMTLAND   0/47
KATTY_KORNER   0/41
LAN   0/16
LINUX-USER   0/19
LINUXHELP   0/1155
LINUX   0/22125
LINUX_BBS   0/957
mail   18.68
mail_fore_ok   249
MENSA   0/341
MODERATOR   0/102
MONTE   0/992
MOSCOW_OKLAHOMA   0/1245
MUFFIN   0/783
MUSIC   0/321
N203_STAT   936
N203_SYSCHAT   313
NET203   321
NET204   69
NET_DEV   0/10
NORD.ADMIN   0/101
NORD.CHAT   0/2572
NORD.FIDONET   189
NORD.HARDWARE   0/28
NORD.KULTUR   0/114
NORD.PROG   0/32
NORD.SOFTWARE   0/88
NORD.TEKNIK   0/58
NORD   0/453
OCCULT_CHAT   0/93
OS2BBS   0/787
OS2DOSBBS   0/580
OS2HW   0/42
OS2INET   0/37
OS2LAN   0/134
OS2PROG   0/36
OS2REXX   0/113
OS2USER-L   207
OS2   0/4804
OSDEBATE   0/18996
PASCAL   0/490
PERL   0/457
PHP   0/45
POINTS   0/405
POLITICS   0/29554
POL_INC   0/14731
PSION   103
R20_ADMIN   1124
R20_AMATORRADIO   0/2
R20_BEST_OF_FIDONET   13
R20_CHAT   0/893
R20_DEPP   0/3
R20_DEV   399
R20_ECHO2   1399
R20_ECHOPRES   0/35
R20_ESTAT   0/719
R20_FIDONETPROG...
...RAM.MYPOINT
  0/2
R20_FIDONETPROGRAM   0/22
R20_FIDONET   0/248
R20_FILEFIND   0/24
R20_FILEFOUND   0/22
R20_HIFI   0/3
R20_INFO2   3290
R20_INTERNET   0/12940
R20_INTRESSE   0/60
R20_INTR_KOM   0/99
R20_KANDIDAT.CHAT   42
R20_KANDIDAT   28
R20_KOM_DEV   112
R20_KONTROLL   0/13340
R20_KORSET   0/18
R20_LOKALTRAFIK   0/24
R20_MODERATOR   0/1852
R20_NC   76
R20_NET200   245
R20_NETWORK.OTH...
...ERNETS
  0/13
R20_OPERATIVSYS...
...TEM.LINUX
  0/44
R20_PROGRAMVAROR   0/1
R20_REC2NEC   534
R20_SFOSM   0/341
R20_SF   0/108
R20_SPRAK.ENGLISH   0/1
R20_SQUISH   107
R20_TEST   2
R20_WORST_OF_FIDONET   12
RAR   0/9
RA_MULTI   106
RA_UTIL   0/162
REGCON.EUR   0/2056
REGCON   0/13
SCIENCE   0/1206
SF   0/239
SHAREWARE_SUPPORT   0/5146
SHAREWRE   0/14
SIMPSONS   0/169
STATS_OLD1   0/2539.065
STATS_OLD2   0/2530
STATS_OLD3   0/2395.095
STATS_OLD4   0/1692.25
SURVIVOR   0/495
SYSOPS_CORNER   0/3
SYSOP   0/84
TAGLINES   0/112
TEAMOS2   0/4530
TECH   0/2617
TEST.444   0/105
TRAPDOOR   0/19
TREK   0/755
TUB   0/290
UFO   0/40
UNIX   0/1316
USA_EURLINK   0/102
USR_MODEMS   0/1
VATICAN   0/2740
VIETNAM_VETS   0/14
VIRUS   0/378
VIRUS_INFO   0/201
VISUAL_BASIC   0/473
WHITEHOUSE   0/5187
WIN2000   0/101
WIN32   0/30
WIN95   0/4291
WIN95_OLD1   0/70272
WINDOWS   0/1517
WWB_SYSOP   0/419
WWB_TECH   0/810
ZCC-PUBLIC   0/1
ZEC   4

 
4DOS   0/134
ABORTION   0/7
ALASKA_CHAT   0/506
ALLFIX_FILE   0/1313
ALLFIX_FILE_OLD1   0/7997
ALT_DOS   0/152
AMATEUR_RADIO   0/1039
AMIGASALE   0/14
AMIGA   0/331
AMIGA_INT   0/1
AMIGA_PROG   0/20
AMIGA_SYSOP   0/26
ANIME   0/15
ARGUS   0/924
ASCII_ART   0/340
ASIAN_LINK   0/651
ASTRONOMY   0/417
AUDIO   0/92
AUTOMOBILE_RACING   0/105
BABYLON5   0/17862
BAG   135
BATPOWER   0/361
BBBS.ENGLISH   0/382
BBSLAW   0/109
BBS_ADS   0/5290
BBS_INTERNET   0/507
BIBLE   0/3563
BINKD   0/1119
BINKLEY   0/215
BLUEWAVE   0/2173
CABLE_MODEMS   0/25
CBM   0/46
CDRECORD   0/66
CDROM   0/20
CLASSIC_COMPUTER   0/378
COMICS   0/15
CONSPRCY   0/899
COOKING   34293
COOKING_OLD1   0/24719
COOKING_OLD2   0/40862
COOKING_OLD3   0/37489
COOKING_OLD4   0/35496
COOKING_OLD5   9370
C_ECHO   0/189
C_PLUSPLUS   0/31
DIRTY_DOZEN   0/201
DOORGAMES   0/2069
DOS_INTERNET   0/196
duplikat   6002
ECHOLIST   0/18295
EC_SUPPORT   0/318
ELECTRONICS   0/359
ELEKTRONIK.GER   1534
ENET.LINGUISTIC   0/13
ENET.POLITICS   0/4
ENET.SOFT   0/11701
ENET.SYSOP   33971
ENET.TALKS   0/32
ENGLISH_TUTOR   0/2000
EVOLUTION   0/1335
FDECHO   0/217
FDN_ANNOUNCE   0/7068
FIDONEWS   24213
FIDONEWS_OLD1   0/49742
FIDONEWS_OLD2   0/35949
FIDONEWS_OLD3   0/30874
FIDONEWS_OLD4   0/37224
FIDO_SYSOP   12853
FIDO_UTIL   0/180
FILEFIND   0/209
FILEGATE   0/212
Möte HAM, 16100 texter
 lista första sista föregående nästa
Text 3508, 880 rader
Skriven 2010-02-19 00:30:20 av Amsat List (1:323/120.0)
Ärende: [keps]  orb10049.amsa
=============================
[keps]  orb10049.amsa

Return-Path: <keps-bounces@amsat.org>
X-Rcpt: craig.healy@chowda.com
X-UIDL: 1266557015.895

SB KEPS @ AMSAT  $ORB10049.O
Orbital Elements  10049.OSCAR

HR AMSAT ORBITAL ELEMENTS FOR OSCAR SATELLITES
FROM WA5QGD FORT WORTH,TX February 18, 2010
Send Subscribe/unsubscribe to KEPS at http://www.amsat.org/mailman/listinfo/kep
BID: ORB10049.O
TO ALL RADIO AMATEURS BT

Satellite: AO-07
Catalog number: 07530
Epoch time:      10049.13173512
Element set:     707
Inclination:      101.4095 deg
RA of node:       069.5882 deg
Eccentricity:    0.0012111
Arg of perigee:   147.2606 deg
Mean anomaly:     212.9217 deg
Mean motion:   12.53577763 rev/day
Decay rate:       -2.7e-07 rev/day^2
Epoch rev:           61353
Checksum:              272

Satellite: FO-29
Catalog number: 24278
Epoch time:      10049.63410201
Element set:     249
Inclination:      098.5208 deg
RA of node:       255.1112 deg
Eccentricity:    0.0351374
Arg of perigee:   071.4165 deg
Mean anomaly:     292.4794 deg
Mean motion:   13.52947630 rev/day
Decay rate:       -3.1e-07 rev/day^2
Epoch rev:           66707
Checksum:              295

Satellite: SO-33
Catalog number: 25509
Epoch time:      10049.50842320
Element set:     652
Inclination:      031.4318 deg
RA of node:       099.6309 deg
Eccentricity:    0.0353957
Arg of perigee:   332.1030 deg
Mean anomaly:     026.1067 deg
Mean motion:   14.28288332 rev/day
Decay rate:       2.89e-06 rev/day^2
Epoch rev:           59107
Checksum:              292

Satellite: RS-22
Catalog number: 27939
Epoch time:      10047.57913563
Element set:    0011
Inclination:      097.9110 deg
RA of node:       278.0563 deg
Eccentricity:    0.0014737
Arg of perigee:   081.5934 deg
Mean anomaly:     278.6930 deg
Mean motion:   14.63382004 rev/day
Decay rate:       1.70e-06 rev/day^2
Epoch rev:           34131
Checksum:              293

Satellite: VO-52
Catalog number: 28650
Epoch time:      10049.61755141
Element set:     438
Inclination:      097.7085 deg
RA of node:       107.5905 deg
Eccentricity:    0.0026084
Arg of perigee:   305.8734 deg
Mean anomaly:     054.0038 deg
Mean motion:   14.81686119 rev/day
Decay rate:       4.32e-06 rev/day^2
Epoch rev:           25913
Checksum:              304

Satellite: SO-67
Catalog number: 35870
Epoch time:      10049.76775978
Element set:     458
Inclination:      097.3489 deg
RA of node:       101.7695 deg
Eccentricity:    0.0012711
Arg of perigee:   109.7472 deg
Mean anomaly:     358.7804 deg
Mean motion:   15.22891795 rev/day
Decay rate:      1.467e-05 rev/day^2
Epoch rev:            2344
Checksum:              358

Satellite: HO-68
Catalog number: 36122
Epoch time:      10049.59941557
Element set:     136
Inclination:      100.4855 deg
RA of node:       111.1613 deg
Eccentricity:    0.0007124
Arg of perigee:   246.8327 deg
Mean anomaly:     113.2042 deg
Mean motion:   13.16279758 rev/day
Decay rate:       -4.5e-07 rev/day^2
Epoch rev:             861
Checksum:              278

/EX
SB KEPS @ AMSAT  $ORB10049.D
Orbital Elements  10049.MICROS

HR AMSAT ORBITAL ELEMENTS FOR THE MICROSATS
FROM WA5QGD FORT WORTH,TX February 18, 2010
Send Subscribe/unsubscribe to KEPS at http://www.amsat.org/mailman/listinfo/kep
BID: ORB10049.D
TO ALL RADIO AMATEURS BT

Satellite: UO-11
Catalog number: 14781
Epoch time:      10049.62297577
Element set:     178
Inclination:      098.0717 deg
RA of node:       100.9098 deg
Eccentricity:    0.0008048
Arg of perigee:   263.6707 deg
Mean anomaly:     096.3612 deg
Mean motion:   14.79768923 rev/day
Decay rate:       -2.4e-07 rev/day^2
Epoch rev:           39427
Checksum:              334

Satellite: AO-16
Catalog number: 20439
Epoch time:      10048.97428911
Element set:     825
Inclination:      098.3175 deg
RA of node:       011.6685 deg
Eccentricity:    0.0011372
Arg of perigee:   156.1258 deg
Mean anomaly:     204.0453 deg
Mean motion:   14.31848458 rev/day
Decay rate:        2.3e-07 rev/day^2
Epoch rev:            4832
Checksum:              293

Satellite: LO-19
Catalog number: 20442
Epoch time:      10049.34058196
Element set:     736
Inclination:      098.2791 deg
RA of node:       018.3042 deg
Eccentricity:    0.0012499
Arg of perigee:   150.9365 deg
Mean anomaly:     209.2529 deg
Mean motion:   14.32081633 rev/day
Decay rate:        6.1e-07 rev/day^2
Epoch rev:            4854
Checksum:              295

Satellite: AO-27
Catalog number: 22825
Epoch time:      10049.00515445
Element set:     460
Inclination:      098.4720 deg
RA of node:       000.1228 deg
Eccentricity:    0.0007506
Arg of perigee:   258.6617 deg
Mean anomaly:     101.3710 deg
Mean motion:   14.29286803 rev/day
Decay rate:        5.4e-07 rev/day^2
Epoch rev:           85502
Checksum:              268

Satellite: IO-26
Catalog number: 22826
Epoch time:      10049.79180224
Element set:     195
Inclination:      098.4655 deg
RA of node:       001.5349 deg
Eccentricity:    0.0008052
Arg of perigee:   252.1106 deg
Mean anomaly:     107.9202 deg
Mean motion:   14.29541113 rev/day
Decay rate:        2.2e-07 rev/day^2
Epoch rev:           85524
Checksum:              272

Satellite: GO-32
Catalog number: 25397
Epoch time:      10049.14389452
Element set:     115
Inclination:      098.3164 deg
RA of node:       063.1359 deg
Eccentricity:    0.0000405
Arg of perigee:   201.4016 deg
Mean anomaly:     158.7158 deg
Mean motion:   14.23171911 rev/day
Decay rate:        6.0e-07 rev/day^2
Epoch rev:           60311
Checksum:              262

